Reno, NV

2:19 PM PST on November 18, 2017 (GMT -0800)
Reno-Tahoe International

Weather History for KRNO - May, 2014

Change the Weather History Date:

Sunday, May 25, 2014

  Actual Average Record
Temperature  
Mean Temperature 73 °F 62 °F  
Max Temperature 91 °F 76 °F 92 °F (1943)
Min Temperature 55 °F 48 °F 26 °F (1978)
Degree Days  
Heating Degree Days 0 5  
Month to date heating degree days 131 181  
Since 1 July heating degree days 4539 4843  
Cooling Degree Days 8 2  
Month to date cooling degree days 35 22  
Year to date cooling degree days 35 23  
Growing Degree Days 23 (Base 50)    
Moisture  
Dew Point 36 °F    
Average Humidity 37    
Maximum Humidity 62    
Minimum Humidity 11    
Precipitation  
Precipitation 0.00 in 0.02 in 0.54 in (1931)
Month to date precipitation 0.54 0.39  
Year to date precipitation 2.00 3.67  
Snow  
Snow 0.00 in 0.00 in 0.20 in (2012)
Month to date snowfall T 0.3  
Since 1 July snowfall 6.2 21.8  
Snow Depth 0.00 in    
Sea Level Pressure  
Sea Level Pressure 29.91 in    
Wind  
Wind Speed 6 mph (West)    
Max Wind Speed 23 mph    
Max Gust Speed 31 mph    
Visibility 10 miles    
Events      
T = Trace of Precipitation, MM = Missing Value Source: NWS Daily Summary

Daily Weather History Graph

Daily Weather History Graph

Search for Another Location

Airport or City:

Trip Planner

Search our weather history database for the weather conditions in past years. The results will help you decide how hot, cold, wet, or windy it might be!

Date:

Astronomy

May. 25, 2014 Rise Set
Actual Time 5:37 AM PDT 8:15 PM PDT
Civil Twilight 5:06 AM PDT 8:46 PM PDT
Nautical Twilight 4:27 AM PDT 9:25 PM PDT
Astronomical Twilight 3:43 AM PDT 10:09 PM PDT
Moon 3:44 AM PDT (5/25) 5:21 PM PDT (5/25)
Length of Visible Light 15h 40m
Length of Day
14h 37m
Waning Crescent, 10% of the Moon is Illuminated
May 25
Waning Crescent
May 28
New
Jun 5
First Quarter
Jun 12
Full
Jun 19
Last Quarter

Hourly Weather History & Observations

Time (PDT) Temp. Dew Point Humidity Pressure Visibility Wind Dir Wind Speed Gust Speed Precip Events Conditions
12:55 AM 63.0 °F 43.0 °F 48% 29.96 in 10.0 mi SSW 5.8 mph - N/A   Partly Cloudy
1:55 AM 63.0 °F 42.1 °F 46% 29.95 in 10.0 mi Calm Calm - N/A   Clear
2:55 AM 62.1 °F 46.0 °F 56% 29.95 in 10.0 mi WNW 6.9 mph - N/A   Clear
3:55 AM 59.0 °F 44.1 °F 58% 29.96 in 10.0 mi WSW 3.5 mph - N/A   Clear
4:55 AM 57.9 °F 44.1 °F 60% 29.96 in 10.0 mi Calm Calm - N/A   Partly Cloudy
5:55 AM 55.9 °F 43.0 °F 62% 29.99 in 10.0 mi SW 3.5 mph - N/A   Scattered Clouds
6:55 AM 61.0 °F 42.1 °F 50% 29.98 in 10.0 mi West 3.5 mph - N/A   Mostly Cloudy
7:55 AM 64.4 °F 39.2 °F 40% 30.13 in 10.0 mi Calm Calm - N/A   Mostly Cloudy
8:55 AM 68.0 °F 41.0 °F 37% 29.98 in 10.0 mi Calm Calm - N/A   Mostly Cloudy
9:55 AM 73.0 °F 37.0 °F 27% 29.96 in 10.0 mi Calm Calm - N/A   Mostly Cloudy
10:55 AM 79.0 °F 30.0 °F 17% 29.93 in 10.0 mi Variable 3.5 mph - N/A   Mostly Cloudy
11:55 AM 80.1 °F 32.0 °F 17% 29.91 in 10.0 mi Variable 3.5 mph - N/A   Scattered Clouds
12:55 PM 82.9 °F 33.1 °F 17% 29.91 in 10.0 mi Calm Calm - N/A   Mostly Cloudy
1:55 PM 86.0 °F 34.0 °F 16% 29.87 in 10.0 mi NNE 6.9 mph - N/A   Mostly Cloudy
2:55 PM 88.0 °F 27.0 °F 11% 29.85 in 10.0 mi Variable 6.9 mph - N/A   Mostly Cloudy
3:55 PM 88.0 °F 27.0 °F 11% 29.84 in 10.0 mi Variable 4.6 mph - N/A   Mostly Cloudy
4:55 PM 91.0 °F 30.0 °F 11% 29.82 in 10.0 mi WSW 12.7 mph - N/A   Mostly Cloudy
5:55 PM 87.1 °F 30.9 °F 13% 29.83 in 10.0 mi West 18.4 mph - N/A   Mostly Cloudy
6:55 PM 84.9 °F 30.9 °F 14% 29.83 in 10.0 mi West 16.1 mph 27.6 mph N/A   Mostly Cloudy
7:55 PM 80.1 °F 33.1 °F 18% 29.86 in 10.0 mi West 17.3 mph 26.5 mph N/A   Mostly Cloudy
8:55 PM 78.1 °F 33.1 °F 19% 29.87 in 10.0 mi WNW 12.7 mph 21.9 mph N/A   Mostly Cloudy
9:55 PM 75.0 °F 37.0 °F 25% 29.89 in 10.0 mi WNW 8.1 mph - N/A   Scattered Clouds
10:55 PM 73.0 °F 35.1 °F 25% 29.89 in 10.0 mi Calm Calm - N/A   Partly Cloudy
11:55 PM 69.1 °F 36.0 °F 30% 29.90 in 10.0 mi SSW 8.1 mph - N/A   Clear